RH
57 57 58 57 58 59 61 64 68 70 71 72 74 74 74 75 73 62 52 49 47 45 44 45 48 50 49 50 54 57 61 63 65 67 67 66 67 70 70 70 71 70 69 69 67 65 62 59 58 54 50 47 49 50 47 39 32 31 29 24 22 23 23 22 21 21 21 23 24 25 26 26 27 30 30 29 27 28 35 48 56 56 58 65 68
60 59 59 59 59 60 62 65 69 72 73 72 72 74 77 79 80 74 61 52 49 47 45 45 47 49 50 49 50 54 58 61 63 67 67 66 66 69 70 71 73 71 70 70 68 66 64 64 63 60 55 50 50 52 51 45 35 33 30 22 20 20 21 21 20 20 21 23 26 26 27 27 28 28 27 25 26 35 48 56 56 56 62 66 65
61 62 62 62 61 61 62 65 68 71 74 74 75 77 80 81 82 81 74 61 51 49 47 46 46 47 49 50 51 53 56 59 62 66 66 65 65 69 71 73 74 72 70 71 69 66 66 66 66 64 59 55 54 54 57 53 41 35 31 23 20 19 19 21 20 21 21 25 27 27 27 27 27 27 25 26 34 48 56 57 57 60 64 64 58
56 59 61 63 63 63 63 64 67 69 72 74 76 78 80 81 81 83 83 74 59 51 49 47 46 46 48 50 53 53 55 59 62 65 67 64 65 70 73 74 75 73 71 71 70 68 68 68 67 65 62 59 58 58 61 61 49 38 33 25 20 19 19 20 20 20 22 26 29 28 27 27 26 25 26 35 48 57 58 58 61 63 62 57 50
50 51 54 58 61 63 64 65 67 68 69 70 71 74 76 79 82 83 85 83 71 59 53 49 46 46 47 48 50 50 51 55 61 65 66 64 65 70 74 76 75 73 72 72 70 69 69 68 67 65 63 62 62 61 62 63 55 44 37 29 22 20 19 20 20 20 23 28 30 28 27 26 26 27 34 48 58 59 60 63 64 65 61 52 44
47 47 48 49 54 59 62 64 66 67 68 68 68 70 74 77 81 83 84 85 80 72 64 55 48 46 47 48 46 46 47 50 57 64 65 63 65 71 75 76 76 74 73 72 70 71 71 69 67 64 63 63 65 65 63 62 59 50 42 35 26 21 20 20 19 21 26 29 29 27 27 27 29 35 46 57 59 56 59 63 62 62 56 43 39
47 47 46 46 48 52 57 61 64 66 67 67 67 69 72 76 79 81 82 83 82 81 75 65 55 49 48 48 45 45 47 47 51 59 64 64 66 70 74 76 76 75 73 71 70 71 71 69 67 65 64 64 66 68 66 64 62 51 41 39 32 22 20 20 20 22 27 29 28 28 28 30 35 44 55 61 60 56 56 57 51 47 42 36 36
49 47 47 47 47 48 51 56 60 63 66 67 68 69 71 74 76 77 79 80 80 82 82 77 66 57 52 50 48 47 47 46 46 52 60 64 66 70 73 76 76 75 73 72 72 72 70 70 69 66 65 66 68 71 70 68 67 56 41 40 39 27 20 19 21 23 26 28 29 29 29 35 43 50 58 59 55 55 55 50 42 36 35 33 33
49 49 48 46 45 46 48 50 53 58 61 64 66 67 67 69 73 75 75 77 80 82 85 83 75 66 59 54 53 50 47 45 45 46 55 63 66 70 74 75 75 74 73 74 73 71 70 70 70 69 67 68 70 73 72 70 72 63 43 38 40 33 24 21 22 24 26 29 29 29 33 40 49 53 56 54 49 51 49 42 36 33 32 31 30
46 49 49 48 45 45 46 48 50 54 56 58 60 62 64 67 69 72 74 77 83 87 87 84 76 68 63 59 56 53 47 46 46 45 52 62 66 71 75 75 75 74 74 74 73 71 71 71 70 70 69 70 73 74 71 70 73 68 47 36 37 37 35 28 22 23 27 29 28 33 39 45 52 53 52 51 47 43 39 34 32 31 30 28 26
42 45 47 48 47 44 43 45 48 51 53 57 58 58 63 67 68 71 77 81 85 88 89 86 79 69 64 63 59 54 48 47 49 47 51 61 68 73 77 76 76 76 75 74 73 71 71 71 70 71 71 74 75 73 72 70 72 72 53 36 34 38 38 30 21 23 28 29 31 39 43 49 57 54 49 48 42 34 31 30 30 29 27 25 25
43 42 42 45 47 44 41 41 45 48 50 56 58 56 60 66 67 68 74 80 84 87 88 87 85 79 72 67 61 55 49 48 51 50 52 59 68 75 77 76 77 76 76 75 72 70 69 69 69 70 73 76 76 73 73 71 72 74 60 40 32 33 31 25 23 27 30 33 39 44 47 55 60 54 46 40 33 29 29 27 24 24 24 24 26
52 47 43 43 46 48 46 44 45 48 48 52 57 56 58 63 64 64 68 74 81 87 89 90 87 86 83 75 65 56 51 48 50 52 52 55 64 73 77 76 78 78 78 76 71 68 67 66 68 70 74 78 78 75 75 74 72 72 66 49 36 31 28 29 32 33 36 44 48 49 51 56 55 48 40 32 27 25 23 21 19 19 23 24 25
61 59 55 51 50 52 54 53 51 51 50 50 54 57 59 61 60 61 64 68 77 85 90 92 87 86 87 82 71 61 54 49 48 50 51 53 59 68 75 77 78 79 77 74 70 67 66 66 70 71 75 79 79 78 77 75 72 70 70 58 43 36 34 41 46 43 46 53 54 52 51 50 46 40 33 27 24 21 18 18 17 19 23 25 25
65 66 65 62 59 57 57 59 59 58 54 51 52 55 58 60 60 61 62 64 72 82 88 90 87 88 90 86 77 68 60 52 49 49 49 53 58 65 73 78 80 80 77 73 70 69 67 68 71 74 77 80 79 79 79 76 72 71 71 63 50 42 42 50 54 53 57 61 59 55 49 46 40 34 28 24 20 17 17 16 16 20 24 25 25
66 67 66 66 66 63 61 61 62 62 60 54 51 53 56 59 61 62 62 61 67 78 85 86 87 93 93 89 84 75 66 57 51 49 50 53 58 62 70 77 80 80 77 73 71 71 69 70 74 77 78 79 77 78 80 77 74 72 71 67 56 47 46 48 49 54 60 60 57 54 47 42 35 29 25 21 17 16 16 15 17 22 23 24 25
64 64 63 65 67 66 62 63 65 64 63 61 55 53 54 57 59 60 60 60 62 72 81 84 85 92 91 86 85 81 72 63 54 51 52 54 58 61 66 73 77 78 76 72 71 70 69 70 74 78 80 79 76 78 81 78 75 74 73 68 58 51 49 47 47 53 55 52 49 47 43 37 29 25 22 18 16 15 14 14 17 22 24 26 25
61 62 60 61 65 67 64 62 65 66 64 63 61 56 54 55 58 59 60 59 59 66 76 81 83 88 88 83 83 81 76 70 61 55 55 55 59 64 66 70 75 77 76 72 71 70 70 72 75 77 79 79 77 79 82 80 77 77 76 70 62 55 51 50 52 54 50 45 43 42 38 31 25 23 20 16 14 13 12 12 17 23 25 26 25
49 55 57 57 59 65 67 64 65 67 66 64 63 59 54 53 55 59 61 61 60 64 71 78 82 87 89 85 84 82 78 75 67 59 56 55 60 67 69 71 74 76 75 73 72 70 70 74 77 77 78 79 78 79 83 82 80 79 77 72 66 58 53 53 53 52 47 40 39 39 35 27 22 20 16 14 12 11 10 11 16 23 25 26 25
37 42 49 52 55 58 62 65 67 68 67 66 65 61 55 52 52 56 61 63 63 64 69 75 79 84 89 87 86 85 80 75 69 61 57 56 59 66 69 70 71 73 74 73 73 71 71 75 78 78 79 80 79 79 82 83 80 79 77 72 65 57 54 53 51 48 42 37 37 37 30 23 20 17 13 12 11 9 9 11 17 24 26 27 25
33 37 41 47 52 54 55 58 64 70 71 70 68 66 60 54 51 54 59 63 65 64 67 74 76 80 85 87 85 85 81 75 69 64 60 57 57 62 67 69 69 70 71 73 74 72 72 75 78 79 80 81 81 80 82 82 79 79 77 72 62 56 53 52 50 43 36 36 37 32 24 19 16 13 11 10 9 9 8 12 20 24 26 27 24
33 37 40 44 48 52 53 52 55 62 70 73 73 69 64 59 54 53 56 63 66 66 66 72 76 77 80 83 84 84 81 75 71 68 63 58 56 58 63 67 68 69 71 73 74 73 73 75 79 80 81 82 81 80 81 81 79 77 77 71 62 56 54 52 45 39 35 35 33 25 18 15 12 11 10 9 10 12 10 11 20 24 25 25 23
34 35 39 43 45 49 51 50 49 54 60 67 73 71 67 62 58 54 55 59 65 67 67 70 75 76 76 79 83 84 81 75 72 70 66 61 57 57 61 64 66 69 71 74 76 75 75 76 78 80 81 81 81 80 81 81 79 76 75 70 63 59 57 50 41 36 34 31 25 19 14 12 10 10 10 8 9 12 11 12 20 24 24 23 23
30 33 35 39 43 45 46 47 49 53 55 59 68 73 69 64 61 58 56 56 61 66 68 69 72 74 75 76 79 82 81 78 74 71 67 64 62 61 63 65 68 70 72 75 77 76 75 76 77 78 79 81 82 82 81 81 79 76 74 69 62 58 53 44 37 33 31 25 20 14 11 11 11 10 9 8 8 10 11 15 22 24 23 23 23
20 26 30 35 39 43 45 46 48 53 58 57 62 71 74 68 64 62 60 57 58 62 66 68 70 71 74 75 75 77 79 79 78 73 68 67 67 68 69 70 72 73 73 76 77 76 75 74 75 77 79 81 83 83 82 81 79 77 74 68 59 52 45 38 32 29 25 21 16 12 11 12 10 9 8 8 9 10 14 20 24 24 23 24 25
11 16 22 28 34 40 45 47 48 51 58 60 60 65 72 73 68 64 64 62 59 60 62 65 68 70 71 73 74 74 76 78 79 76 71 68 70 71 73 74 74 75 76 77 76 75 74 72 72 75 79 80 83 84 83 81 80 77 73 67 56 46 38 32 28 26 22 17 13 11 12 11 10 9 8 11 13 12 18 25 24 23 25 25 25
7 8 13 19 26 33 39 45 49 51 55 59 61 62 67 72 73 67 65 65 63 61 61 61 64 69 70 70 73 74 74 76 76 75 72 70 71 72 74 75 76 78 78 78 76 74 72 70 71 75 79 80 82 84 83 81 81 77 70 64 53 39 31 28 26 24 19 14 12 13 12 10 10 9 9 14 16 16 21 26 25 25 26 26 25
6 6 7 10 15 21 28 35 45 51 54 56 60 62 64 68 73 72 67 66 66 64 62 60 61 66 70 69 70 72 74 74 74 74 73 71 71 72 73 74 76 80 80 78 76 73 71 69 71 75 79 80 82 84 83 82 81 76 70 62 47 32 28 27 26 23 17 13 13 13 12 11 11 9 10 15 17 19 24 27 26 26 27 27 26
6 6 6 6 7 11 17 24 33 43 51 55 57 60 63 62 66 72 73 70 68 66 64 62 59 62 68 71 70 71 73 74 73 74 74 73 71 70 71 73 75 78 80 77 74 72 69 68 71 75 78 80 84 85 83 81 80 76 70 57 40 29 27 27 25 21 16 14 14 13 12 11 11 10 13 17 19 23 27 27 26 27 28 27 25
6 7 6 6 5 6 9 15 21 29 40 49 55 57 60 60 60 66 74 74 70 68 67 65 61 60 63 69 72 72 73 74 73 73 75 74 73 71 70 71 73 77 78 76 74 71 68 69 72 75 78 80 84 85 83 80 80 77 67 52 37 29 28 27 24 21 16 14 14 13 12 12 11 11 13 18 21 25 28 28 27 28 29 28 24
7 6 6 6 6 5 5 7 13 20 26 37 47 54 58 60 59 61 71 78 75 70 70 69 66 63 59 62 71 75 75 74 73 72 73 74 74 71 68 70 73 76 77 76 74 72 69 69 72 75 77 80 83 85 83 81 81 77 68 53 38 30 29 26 24 22 18 15 14 13 12 12 12 11 13 17 22 27 29 28 28 29 29 28 25
9 8 7 7 7 6 5 5 7 12 18 25 34 47 54 59 59 57 64 77 79 73 71 71 71 69 62 57 65 75 78 78 75 73 72 73 73 70 68 70 73 77 77 76 74 73 70 69 71 74 76 80 84 84 83 82 81 78 71 58 41 31 30 26 23 23 19 15 14 13 13 13 12 12 12 15 22 28 30 28 28 30 30 29 26
11 10 9 7 7 6 6 5 4 6 13 18 24 36 47 55 59 58 59 69 78 77 74 73 73 72 66 58 60 71 80 82 78 75 74 73 73 70 68 71 74 75 76 76 74 74 72 70 70 72 76 80 85 85 83 83 81 78 75 64 46 34 30 25 24 25 20 16 15 13 13 13 12 12 12 13 18 25 29 29 28 29 30 30 28
12 11 10 9 8 7 6 5 5 4 7 14 19 26 37 48 56 59 58 62 72 79 78 75 75 76 71 63 59 66 78 84 81 77 75 74 74 71 70 72 73 74 75 76 75 74 73 71 70 72 76 80 85 86 85 84 82 79 75 65 51 39 31 27 26 25 21 17 16 14 14 14 13 12 12 12 14 19 25 28 29 30 30 30 29
13 12 11 10 8 8 7 5 5 5 5 9 15 20 29 40 51 58 60 60 67 76 79 78 79 80 75 67 60 62 73 82 83 79 77 76 75 73 72 73 74 75 76 76 75 74 75 73 71 73 77 80 85 87 86 84 84 83 75 64 54 44 34 29 27 26 22 19 16 15 15 15 14 13 12 13 13 15 18 21 24 26 26 26 28
15 13 12 11 9 7 7 5 5 5 4 7 13 18 24 34 46 56 61 61 64 73 79 79 80 82 80 71 62 60 69 79 83 80 78 77 77 75 75 76 78 78 77 77 75 75 76 73 71 75 78 81 85 86 86 84 84 85 77 65 58 48 37 31 29 26 23 19 17 16 16 17 16 14 13 13 14 16 16 16 16 18 18 17 21
15 14 13 11 10 8 7 6 5 5 5 6 10 16 21 28 41 53 60 61 63 69 77 79 79 80 80 74 64 60 67 77 83 82 79 78 77 77 78 80 81 81 79 78 76 76 76 72 72 77 79 82 85 85 86 84 84 86 80 69 62 50 39 35 31 26 23 21 18 17 18 18 17 14 14 14 15 17 17 16 14 14 14 12 14
16 16 15 13 11 10 8 7 6 5 5 6 8 14 19 24 35 49 58 61 62 68 75 79 79 79 80 76 68 62 65 72 80 82 81 79 77 77 79 81 83 83 81 78 77 76 74 72 73 78 79 82 85 86 86 84 83 87 82 73 67 53 40 38 34 27 24 21 19 18 19 20 18 15 15 15 15 16 17 16 14 14 14 14 12
19 17 16 14 13 12 10 8 7 6 7 6 8 13 17 21 29 43 55 61 63 67 74 78 80 79 79 77 70 63 61 65 73 79 81 81 78 78 79 81 83 84 81 78 76 75 74 72 75 77 78 81 85 86 87 85 84 87 81 73 69 55 42 40 38 30 25 22 19 19 19 21 19 16 16 15 15 16 17 16 15 14 16 15 13
21 20 18 16 15 14 13 10 8 8 8 7 8 12 16 19 25 36 49 59 64 67 73 78 79 80 79 77 71 64 59 60 67 75 80 82 81 80 80 82 83 83 81 78 76 75 73 73 76 77 76 81 85 87 88 86 85 86 81 72 68 56 44 42 40 35 29 24 20 19 20 21 21 19 18 17 16 16 17 16 15 15 16 16 14
24 24 22 20 19 16 14 12 10 9 9 8 8 11 15 19 24 31 42 56 65 68 73 77 79 81 82 78 73 65 58 57 64 72 79 81 81 80 80 81 82 82 79 77 77 75 72 73 78 77 75 80 85 87 88 85 84 87 82 72 68 60 47 43 44 39 33 28 21 19 21 22 23 23 22 21 20 18 18 17 16 16 17 15 15
28 27 27 25 23 20 16 13 12 10 9 8 8 10 15 19 25 31 39 53 65 70 74 79 81 82 82 80 75 66 57 56 62 69 76 81 82 81 79 79 80 79 78 78 78 75 72 74 78 77 74 78 84 87 87 85 85 87 81 71 68 64 52 47 47 43 39 34 26 21 22 23 24 25 25 24 23 21 19 18 17 17 17 16 16
33 32 30 30 28 24 19 15 13 11 9 9 8 8 12 18 24 31 38 49 63 70 75 80 83 83 83 82 78 69 58 57 62 68 77 82 83 82 80 78 78 78 78 78 78 74 73 76 78 75 73 76 81 85 87 85 84 85 81 71 68 66 57 51 50 47 43 41 33 25 23 23 23 25 25 25 25 24 21 19 17 17 17 16 17
39 37 34 32 31 28 24 17 13 12 9 8 8 8 10 14 20 28 38 51 63 70 76 81 83 84 85 83 81 73 59 54 60 69 79 85 84 83 82 80 79 79 80 78 75 71 72 76 76 72 71 75 80 84 85 84 84 85 83 73 68 67 61 53 50 49 48 46 40 32 26 23 23 24 25 25 25 25 23 20 16 15 16 17 17
43 41 38 35 32 29 26 20 15 13 10 8 8 8 9 12 17 25 39 57 69 72 76 80 81 83 85 83 81 74 60 53 60 70 77 83 85 87 86 83 80 82 83 80 74 70 71 73 73 70 70 73 79 83 84 84 84 84 83 77 71 70 66 57 51 50 51 51 47 39 31 26 25 25 25 25 25 25 24 21 16 14 14 16 17
48 46 42 38 33 28 26 23 18 14 11 9 8 9 9 10 15 25 42 61 72 75 77 80 81 82 84 83 80 74 63 56 60 69 76 80 85 88 88 85 83 84 84 81 75 71 71 72 71 69 69 72 77 82 84 85 83 82 82 80 76 75 71 62 53 52 55 56 51 45 38 31 27 26 26 25 24 25 26 24 19 15 14 16 19
53 49 43 38 33 27 25 25 22 16 12 10 9 9 11 12 15 28 47 61 68 74 78 82 83 84 84 83 81 76 67 58 59 67 74 80 84 87 88 86 85 86 85 81 76 73 72 73 71 69 69 72 77 80 82 83 83 82 83 83 80 76 73 66 58 57 59 59 56 52 47 39 32 27 27 26 26 26 26 26 24 19 15 16 19
51 46 41 36 33 27 24 27 26 20 13 11 11 10 13 15 17 32 54 64 68 74 79 82 85 85 85 84 83 79 69 59 59 66 73 78 83 86 88 89 88 87 85 81 78 76 74 73 71 70 70 72 75 78 79 82 83 83 83 83 79 74 70 67 64 63 63 62 61 58 54 49 40 31 27 27 26 26 26 26 26 24 20 16 18
44 40 37 35 34 31 29 29 28 23 16 13 14 13 14 16 19 36 57 67 70 77 83 84 85 88 88 86 82 80 72 60 58 65 71 77 82 85 87 90 89 88 86 83 80 79 76 73 72 71 71 72 74 76 78 81 83 82 82 81 78 73 70 69 69 69 68 66 65 62 58 55 49 40 33 29 26 26 27 26 25 26 24 20 18
40 36 34 34 34 34 34 32 30 26 21 18 17 16 16 16 21 41 61 67 70 80 87 87 85 87 89 87 83 82 76 64 61 66 71 77 82 83 85 87 88 87 85 83 83 81 78 75 74 73 72 74 76 77 79 81 81 80 81 81 80 76 72 71 73 73 71 69 68 66 62 58 55 49 42 35 31 28 27 27 26 25 25 24 22
39 37 37 38 36 34 34 33 30 28 26 23 19 18 16 17 27 49 65 66 70 82 88 89 87 86 88 87 84 84 77 68 66 70 72 77 82 83 84 86 87 87 85 85 85 83 79 77 75 75 74 76 78 80 79 80 81 81 82 83 81 78 76 74 74 74 73 72 71 71 68 64 61 57 50 44 38 33 30 28 27 26 25 25 25